Location: Newark
(23.3970°S, 47.6010°W)
Time: 15:11:48
(UTC+00:00)

Tiros 1 despin weight - Pass Details

Date: 25 February 2020
Orbit: 593 x 642 km, 48.2° (Epoch: 04 April)

Event Time Altitude Azimuth Distance (km) Brightness Sun altitude
Rises 13:09:11 0° 305° (NW) 2,867 ? 54.9°
Reaches altitude 10° 13:11:31 10° 300° (WNW) 1,976 ? 55.4°
Maximum altitude 13:15:57 52° 223° (SW) 782 ? 56.4°
Drops below altitude 10° 13:20:30 10° 146° (SE) 2,023 ? 57.3°
Sets 13:22:54 0° 141° (SE) 2,943 ? 57.8°
